Voltar ao catálogo

ONEWEB-0028

AtivoComunicaçõesPO
NORAD 45140·PAYLOAD·🇬🇧 United Kingdom

Lançado Feb 6, 2020 de Baikonur Cosmodrome

Loading…

Próximas Passagens (próximas 24 horas)

TLE

AtualizadoSource: CelesTrak SupGP

Época: Sep 15, 2026, 02:15 UTC

1 45140C 20008K   26258.09393935  .00000907  00000+0  25635-2 0  2584
2 45140  87.8959   3.1967 0002339 107.3982 286.0564 13.11410874    17

Acompanhe ONEWEB-0028 em tempo real com AllMySat

Download on the App Store